Regional Weather Roundup
Issued by NWS Portland, ME

Home | Current Version | Previous Version | Text Only | Print | Product List | Glossary On
Versions: 1 2 3 4 5 6 7 8 9 10 11 12 13 14 15 16 17 18 19 20 21 22 23 24 25 26 27 28 29 30 31 32 33 34 35 36 37 38 39 40 41 42 43 44 45 46 47 48 49 50
000
ASUS41 KGYX 211110
RWRGYX
WEATHER ROUNDUP FOR MAINE AND NEW HAMPSHIRE
NATIONAL WEATHER SERVICE GRAY ME
600 AM EST WED FEB 21 2018

MEZ002-005-006-010-012-015-018-020-021-024-026-027-029-211200-
MAINE

CITY           SKY/WX    TMP DP  RH WIND       PRES   REMARKS
PORTLAND       FOG       35  35 100 CALM      30.18F VSB 1/4
SANFORD        FAIR      32  32 100 CALM      30.18F FOG
BAR HARBOR     FOG       36  36 100 CALM      30.18F VSB<1/4
WISCASSET      FOG       35  35 100 CALM      30.19F VSB 1/4
ROCKLAND       FOG       37  37 100 SW3       30.18F VSB 1/4
FRYEBURG       FOG       31  31 100 CALM      30.15F VSB 1/4
LEWISTONAUBURN LGT RAIN  35  35 100 SE3       30.16F VSB 1/4
AUGUSTA        FOG       35  35 100 CALM      30.16F VSB 1/4
WATERVILLE     FOG       35  35 100 SW3       30.12F VSB 1/4
BANGOR         FOG       36  36 100 S5        30.16F VSB 1/8
GREENVILLE       N/A     33  33 100 SE8       30.07S
MILLINOCKET    FOG       36  36 100 S3        30.12F VSB 1/2
HOULTON        FOG       33  33 100 VRB3      30.10F VSB 1/2
PRESQUE ISLE   MIX PCPN  32  30  92 SE12      30.06F
FRENCHVILLE    FRZ RAIN  29  28  96 SE14      30.00F VSB 1/4 WCI  18
CARIBOU        FRZ RAIN  32  29  88 S13       30.04F FOG
$$

NHZ002-005-008-009-011-012-014-211200-
NEW HAMPSHIRE

CITY           SKY/WX    TMP DP  RH WIND       PRES   REMARKS
PORTSMOUTH     FOG       33  33  99 CALM      30.18F VSB 3/4
ROCHESTER      FAIR      34  34 100 CALM      30.17F
NASHUA         FAIR      34  34 100 W5        30.20F
MANCHESTER     FAIR      36  34  92 CALM      30.18F
CONCORD        FOG       34  32  92 CALM      30.19S VSB 1/2
LACONIA        FOG       33  33 100 SW3       30.18F VSB 1/4
PLYMOUTH       CLOUDY    31  31  99 CALM      30.18F FOG
BERLIN         NOT AVBL
WHITEFIELD     FAIR      33  32  96 CALM      30.11F
JAFFREY        FOG       39  32  76 S5        30.21F VSB 1/4
KEENE          FOG       35  34  96 CALM      30.22F VSB 1/4
LEBANON        CLOUDY    34  34 100 CALM      30.15F FOG
MT WASHINGTON  MOCLDY    45  43  93 W71G79      N/A
$$

VTZ005-007-008-211200-
VERMONT

CITY           SKY/WX    TMP DP  RH WIND       PRES   REMARKS
ST JOHNSBURY     N/A     38  38 100 MISG      30.09F
MONTPELIER     FAIR      47  46  97 S10       30.14F
BURLINGTON     FAIR      60  51  72 S16G26    30.07S
$$

MAZ007-012-024-CTZ003-RIZ002-NYZ038-NYZ072-211200-
SOUTHERN NEW ENGLAND AND NY

CITY           SKY/WX    TMP DP  RH WIND       PRES   REMARKS
BOSTON         FAIR      53  52  96 S13       30.21F
WORCESTER      FOG       53  53 100 SW20      30.22F VSB 1
NANTUCKET      FOG       46  46 100 SW14      30.31F VSB 1/4
PROVIDENCE     MOCLDY    58  56  93 SW9       30.27F
HARTFORD       FOG       52  52 100 S9        30.25F VSB 1/4
ALBANY         FAIR      56  52  86 S13       30.18S
NEW YORK CITY  CLOUDY    53  50  89 S8        30.29F
$$

ANZ081-ANZ082-ANZ150-NHZ014-MEZ023>029-211200-
COASTAL MARINE OBSERVATIONS

STATION/POSITION TIME  TEMP    WIND        PRES    WAVE
                       AIR SEA DIR/SP/G            HT/PER
                 (UTC) (F)     (DEG/KT/KT) (MB)    (FT/S)
MOUNT DESERT ROC 1100   43     190/ 12/ 13 1022.1F
MATINICUS ROCK   1100   39     210/ 12/ 12 1021.4F
ISLE OF SHOALS   1100   38      CALM  /  1 1022.1F
JEFFREYS LEDGE   1036      42                N/A     4/10
GEORGES BANK BUO 0950   47 61              1026.5    8/13
$$

.............KEY..............
   WCI - WIND CHILL
   TC  - TEMPERATURE IN CELSIUS
   VSB - VISIBILITY IN MILES
   HX  - HEAT INDEX
   FAIR- INDICATES FEW OR NO CLOUDS BELOW 12,000 FT, WITH NO
         SIGNIFICANT WEATHER AND/OR OBSTRUCTIONS TO VISIBILITY.






USA.gov is the U.S. government's official web portal to all federal, state and local government web resources and services.